Wind_Speed
28 28 29 29 30 31 31 32 33 34 35 35 36 37 38 38 39 40 41 42 43 43 44 44 44 45 45 46 46 47 49 50 51 52 53 53 54 54 54 55 55 55 55
31 32 32 33 34 34 35 36 37 37 38 39 40 41 41 42 43 43 45 45 46 47 47 47 48 48 48 48 49 49 50 51 52 53 54 55 56 56 57 57 58 58 58
35 35 36 37 38 38 39 40 41 41 42 43 44 45 45 46 46 47 48 49 50 51 51 51 51 51 51 51 51 52 52 53 54 55 56 56 57 58 58 59 60 61 61
38 39 39 40 42 42 42 43 45 45 46 47 48 49 49 50 50 51 51 52 53 54 54 54 54 54 54 54 54 54 55 55 55 56 57 58 59 59 60 61 62 63 63
42 42 43 44 45 46 47 48 48 50 50 51 52 53 53 53 54 54 55 56 56 56 57 57 57 57 57 57 57 57 57 57 57 57 58 58 59 60 61 61 62 63 64
45 46 47 48 49 50 50 52 52 53 54 56 57 56 56 56 56 57 58 58 58 58 59 59 60 59 59 59 60 59 59 58 59 59 59 59 59 60 61 62 62 63 64
48 50 50 51 52 53 54 56 57 58 58 60 61 60 59 59 59 60 61 61 60 60 61 61 61 61 61 61 61 61 60 60 60 60 60 60 60 61 61 62 63 64 65
51 52 53 54 56 57 58 59 61 61 62 63 64 64 63 62 61 62 62 62 62 62 62 62 62 62 62 62 62 62 61 61 61 61 61 61 61 61 62 63 64 64 65
52 54 56 57 59 60 61 62 64 64 65 66 67 68 68 66 65 63 62 62 62 62 62 63 64 64 64 63 63 62 62 62 62 62 62 62 62 62 62 63 63 64 65
54 56 58 60 61 63 64 65 66 67 68 68 69 69 69 69 68 66 63 62 62 63 64 65 65 64 64 62 62 62 62 62 63 63 63 63 63 63 63 63 63 64 65
56 58 59 61 63 64 65 67 68 69 69 69 69 69 69 69 68 68 66 65 64 64 65 65 64 64 63 62 61 61 62 63 63 63 63 63 63 62 63 63 63 64 65
56 58 60 62 63 65 66 67 68 69 69 69 69 69 69 68 68 69 68 66 65 64 64 64 63 63 62 62 61 61 62 63 63 62 62 62 62 62 63 63 64 64 65
55 57 60 61 63 64 65 66 67 68 68 69 69 69 69 69 69 69 68 66 65 63 62 61 61 61 62 62 62 62 63 62 62 61 62 62 62 63 63 63 64 65 65
56 58 60 61 63 64 65 66 67 68 69 69 69 69 69 68 68 68 67 66 64 62 61 60 60 62 63 63 63 64 63 62 62 62 62 62 63 63 63 64 64 65 66
56 58 60 61 62 64 65 66 67 68 69 69 69 69 68 67 67 67 66 66 65 63 61 60 61 62 63 64 64 63 62 62 62 63 63 63 63 63 64 64 65 66 66
58 60 61 62 63 64 65 66 67 67 68 67 67 67 67 66 67 66 66 65 65 65 62 60 61 61 63 63 63 63 63 63 63 64 64 63 63 63 63 64 65 66 67
61 62 63 63 64 65 66 66 66 66 66 66 66 66 65 66 66 66 65 65 65 65 63 61 62 63 63 63 63 64 63 64 64 64 64 63 63 63 63 64 65 66 67
62 63 63 64 64 65 65 65 65 65 65 64 64 64 64 64 64 64 64 63 64 64 63 62 61 62 62 63 64 64 64 64 63 63 63 63 63 63 63 64 65 66 67
64 64 64 64 64 64 64 63 63 63 63 63 63 63 63 63 63 63 64 64 64 64 63 62 61 62 62 63 63 63 63 63 63 63 63 63 63 64 64 65 66 66 67
66 65 65 65 64 63 62 62 62 62 62 62 62 62 62 62 63 64 64 64 64 64 64 63 62 62 62 63 63 62 63 63 62 62 62 63 64 64 65 66 67 67 68
67 66 65 64 64 63 63 62 62 61 61 60 60 60 61 62 63 63 63 63 63 63 64 63 62 62 61 62 62 62 62 61 61 61 62 63 63 64 65 66 66 67 67
66 66 65 64 63 62 62 61 60 59 59 59 59 59 60 61 61 61 61 62 62 63 62 62 61 60 60 60 61 61 61 61 60 60 62 61 62 62 63 63 64 65 65
65 65 64 63 62 61 60 60 59 59 58 58 59 59 59 59 59 59 60 60 60 60 60 60 59 59 59 59 60 60 59 60 59 59 61 59 60 60 60 61 62 63 64
63 62 61 60 59 58 58 58 58 58 57 57 56 57 57 57 58 59 59 59 59 59 59 59 58 57 58 58 59 59 59 58 57 58 59 58 57 58 58 58 59 61 61
60 59 57 57 56 56 56 56 56 55 55 55 55 56 57 57 57 58 58 58 57 57 57 57 57 56 56 56 56 56 56 56 55 54 56 57 56 57 56 55 56 58 59
57 56 55 55 55 54 54 53 54 54 54 54 55 56 56 56 56 57 57 56 55 54 55 55 54 54 54 54 54 54 54 54 53 52 53 55 55 56 54 51 52 55 56
Wind_Direction
282 282 283 284 284 285 286 287 288 288 289 289 290 290 291 292 293 294 294 294 293 292 291 289 287 285 282 280 277 275 273 271 269 268 266 265 264 263 262 261 260 259 258
279 280 281 282 283 283 284 285 286 287 287 288 288 289 290 290 291 292 292 292 292 292 291 289 288 286 284 281 279 277 274 272 270 268 266 265 264 263 262 261 260 260 259
277 278 280 280 281 282 283 284 285 285 286 287 288 288 289 289 289 290 291 291 291 291 290 289 287 286 284 283 281 279 277 274 271 269 267 265 264 263 262 261 260 259 258
277 278 278 279 280 281 282 283 283 284 285 286 286 287 288 289 289 289 290 290 290 289 289 288 286 285 284 283 282 280 278 276 273 271 268 266 264 263 262 261 260 259 258
276 277 277 278 279 280 281 282 282 283 284 284 285 286 287 288 288 288 289 288 288 288 287 286 285 284 283 282 282 281 279 277 275 273 271 268 266 264 262 261 260 259 258
276 276 277 278 279 280 281 281 282 282 283 284 285 286 286 286 287 287 287 287 287 286 286 285 284 283 282 282 281 280 279 277 276 274 272 270 267 265 263 262 261 260 259
276 277 278 279 279 280 280 281 282 282 283 284 285 285 285 286 287 287 287 286 286 285 284 283 283 282 282 281 280 279 279 277 276 275 273 271 269 267 265 263 262 261 260
278 279 280 280 280 281 281 282 282 283 283 284 285 285 285 285 286 286 286 286 285 284 283 282 282 282 281 280 279 279 278 277 276 275 273 272 270 269 267 265 264 263 261
279 280 280 281 281 281 282 282 283 283 284 284 285 286 286 286 285 285 285 285 284 283 283 282 282 281 281 280 279 278 277 277 276 274 273 272 271 269 268 266 265 264 262
281 281 281 281 281 282 282 282 283 284 284 285 285 286 286 287 287 286 285 284 283 282 282 282 282 281 281 280 279 278 277 276 276 275 274 272 271 270 269 267 266 264 262
282 282 282 282 282 282 282 282 282 283 284 284 285 285 286 286 287 287 286 284 283 282 282 281 281 281 280 279 278 278 277 276 276 275 274 273 271 270 269 268 266 264 263
284 283 282 282 282 282 282 282 282 283 283 283 284 285 285 285 286 286 286 285 284 282 281 281 281 280 279 279 278 278 277 277 276 275 274 273 272 271 270 268 267 265 264
286 285 284 284 283 282 282 282 282 282 282 283 283 283 284 284 284 284 284 284 283 282 281 280 280 279 279 278 278 278 278 277 277 275 274 274 273 272 271 270 268 267 266
288 287 286 285 284 283 282 282 282 282 282 282 282 283 283 284 283 283 283 283 283 281 280 280 279 279 279 279 279 279 278 278 277 276 275 274 273 273 272 271 270 268 267
290 289 288 287 286 285 284 283 283 282 282 282 282 282 282 283 283 282 282 282 282 281 280 280 280 279 278 278 278 278 278 277 277 276 275 275 274 274 273 272 271 270 269
292 291 290 289 287 285 284 283 283 283 282 282 282 282 282 282 282 281 281 281 281 281 280 279 279 279 278 277 277 278 278 277 277 277 276 275 275 275 274 274 273 272 271
293 292 291 290 288 287 286 285 284 283 283 283 283 282 281 281 281 281 281 281 281 280 280 278 278 278 278 277 277 277 278 278 277 277 275 275 275 275 276 275 275 274 274
293 292 291 290 289 287 286 285 284 284 284 283 283 282 282 281 281 281 281 280 280 280 280 279 279 278 278 277 277 277 277 277 277 276 275 275 276 276 277 277 276 276 276
294 293 292 291 289 288 287 286 285 284 284 283 283 283 282 282 281 281 281 280 280 280 280 279 278 277 277 277 277 277 277 277 276 275 275 275 276 277 277 278 278 277 277
293 292 292 291 290 288 287 286 285 284 284 284 283 283 282 282 282 281 281 281 280 279 279 279 278 277 277 277 277 277 276 276 275 275 275 275 276 277 278 278 278 278 278
293 292 291 290 290 289 288 287 286 286 285 285 284 284 283 282 282 281 280 280 279 279 279 278 278 277 277 277 276 276 276 275 275 275 275 276 277 277 278 278 279 279 279
293 292 292 291 290 289 288 288 287 286 286 286 285 284 283 283 281 281 280 280 279 279 279 278 278 277 277 276 275 276 276 275 275 275 276 276 277 277 278 279 279 280 280
294 293 292 292 291 291 290 289 288 288 287 287 286 285 283 282 282 281 281 281 280 279 278 278 278 278 276 275 275 276 276 276 276 276 276 277 277 277 278 279 279 280 280
294 294 293 293 292 291 291 290 289 289 289 288 287 286 284 283 283 282 281 281 281 280 279 278 277 276 275 275 275 276 276 277 277 277 277 277 277 278 279 280 280 281 282
295 294 294 294 293 292 292 291 290 290 290 289 288 287 285 284 283 282 282 281 280 279 279 278 277 276 275 275 275 276 277 277 277 277 278 278 278 279 280 281 281 282 283
296 295 295 295 294 293 293 292 291 291 291 290 289 287 286 285 283 283 283 282 281 279 278 277 276 276 276 275 276 276 277 278 278 277 278 279 280 281 281 282 282 283 284
Height
5823 5822 5820 5819 5817 5815 5813 5811 5809 5808 5806 5804 5802 5800 5798 5796 5794 5791 5789 5787 5784 5782 5780 5778 5776 5775 5773 5772 5771 5771 5770 5770 5770 5770 5771 5771 5772 5773 5774 5776 5778 5780 5782
5817 5815 5813 5811 5809 5808 5806 5804 5802 5800 5797 5795 5793 5791 5789 5787 5785 5782 5780 5777 5774 5772 5769 5767 5765 5763 5762 5760 5759 5759 5758 5758 5757 5758 5758 5758 5759 5760 5761 5763 5764 5766 5768
5809 5808 5806 5803 5801 5799 5798 5795 5793 5791 5788 5786 5783 5781 5779 5777 5774 5772 5769 5766 5763 5761 5758 5755 5753 5751 5749 5748 5746 5745 5744 5744 5744 5744 5744 5745 5745 5746 5747 5749 5750 5752 5754
5801 5799 5797 5795 5792 5790 5788 5785 5783 5781 5778 5776 5773 5771 5769 5766 5763 5761 5758 5755 5751 5748 5746 5743 5740 5738 5736 5734 5733 5731 5730 5730 5729 5729 5729 5730 5731 5732 5733 5734 5735 5737 5739
5791 5789 5788 5785 5782 5780 5778 5775 5773 5770 5768 5764 5762 5760 5758 5755 5751 5749 5746 5742 5739 5736 5732 5729 5727 5724 5722 5720 5718 5717 5715 5714 5714 5713 5714 5714 5715 5716 5717 5718 5720 5721 5723
5782 5779 5777 5775 5772 5770 5767 5764 5761 5758 5756 5752 5749 5748 5745 5742 5739 5736 5732 5729 5725 5722 5719 5715 5712 5710 5707 5705 5703 5701 5700 5699 5698 5697 5697 5698 5698 5699 5700 5702 5703 5705 5707
5771 5768 5766 5764 5760 5758 5755 5752 5749 5746 5742 5738 5735 5734 5732 5729 5726 5722 5717 5714 5711 5707 5704 5700 5697 5694 5692 5690 5687 5685 5684 5683 5682 5681 5681 5681 5681 5682 5683 5684 5686 5687 5689
5760 5757 5754 5751 5748 5745 5742 5738 5735 5731 5728 5723 5720 5717 5716 5716 5712 5707 5703 5699 5695 5691 5688 5684 5681 5678 5675 5673 5671 5669 5667 5666 5665 5664 5664 5664 5664 5664 5665 5666 5667 5669 5671
5749 5745 5742 5738 5735 5731 5728 5724 5720 5716 5713 5709 5704 5700 5697 5697 5695 5693 5689 5684 5679 5675 5671 5667 5664 5661 5658 5656 5654 5652 5650 5649 5647 5647 5646 5646 5646 5646 5647 5648 5649 5650 5652
5736 5732 5729 5725 5721 5717 5713 5709 5704 5700 5696 5693 5688 5684 5680 5676 5673 5673 5672 5668 5663 5659 5654 5650 5647 5644 5641 5639 5636 5634 5632 5631 5630 5628 5628 5627 5627 5627 5628 5629 5630 5631 5632
5723 5719 5715 5710 5706 5702 5698 5693 5688 5684 5680 5675 5671 5667 5663 5659 5655 5650 5650 5650 5646 5642 5637 5633 5629 5626 5623 5620 5618 5616 5614 5613 5612 5610 5609 5608 5608 5608 5608 5609 5610 5611 5612
5709 5704 5699 5695 5690 5686 5682 5677 5671 5667 5663 5659 5654 5650 5645 5642 5638 5633 5629 5628 5626 5623 5619 5615 5612 5609 5605 5602 5600 5598 5596 5594 5593 5592 5591 5590 5589 5589 5589 5589 5590 5591 5592
5695 5689 5683 5679 5674 5669 5664 5659 5654 5650 5645 5641 5637 5632 5628 5625 5620 5615 5610 5608 5605 5604 5600 5598 5594 5590 5587 5584 5582 5579 5578 5576 5574 5573 5572 5571 5570 5569 5569 5569 5569 5570 5571
5679 5673 5668 5662 5657 5652 5647 5641 5637 5633 5628 5623 5619 5614 5610 5606 5601 5597 5592 5588 5585 5584 5582 5581 5576 5572 5568 5565 5563 5560 5559 5557 5555 5554 5553 5552 5550 5550 5549 5549 5548 5549 5549
5664 5657 5651 5646 5640 5634 5629 5623 5619 5615 5609 5605 5601 5596 5591 5588 5582 5578 5574 5570 5566 5564 5565 5563 5558 5554 5549 5546 5544 5541 5540 5538 5536 5535 5533 5532 5531 5530 5529 5528 5528 5527 5527
5647 5641 5634 5628 5622 5616 5610 5604 5600 5595 5590 5586 5581 5577 5573 5569 5564 5559 5555 5551 5547 5544 5544 5546 5540 5535 5530 5527 5525 5523 5521 5519 5517 5515 5514 5512 5511 5510 5508 5507 5507 5506 5505
5629 5623 5616 5609 5603 5597 5591 5585 5581 5576 5571 5567 5563 5558 5555 5549 5545 5540 5536 5532 5529 5525 5524 5526 5520 5516 5512 5509 5506 5504 5502 5500 5498 5496 5494 5492 5491 5489 5488 5487 5485 5484 5483
5611 5604 5597 5591 5584 5578 5572 5566 5562 5557 5552 5548 5543 5538 5535 5530 5526 5521 5517 5513 5510 5506 5504 5504 5502 5497 5493 5490 5487 5484 5483 5481 5479 5477 5474 5472 5471 5469 5467 5465 5464 5462 5460
5593 5585 5578 5571 5565 5558 5552 5547 5542 5538 5533 5529 5524 5519 5516 5510 5507 5502 5498 5494 5491 5487 5484 5483 5483 5478 5475 5471 5468 5465 5463 5461 5459 5457 5455 5453 5451 5449 5446 5444 5442 5440 5437
5573 5566 5559 5552 5545 5539 5534 5528 5523 5518 5514 5510 5505 5501 5496 5491 5487 5483 5479 5475 5471 5468 5465 5463 5462 5459 5456 5452 5448 5447 5444 5442 5440 5438 5435 5433 5431 5428 5426 5423 5420 5418 5415
5553 5546 5539 5532 5526 5520 5514 5508 5504 5499 5495 5491 5487 5482 5477 5472 5467 5463 5459 5456 5452 5449 5446 5443 5442 5440 5437 5432 5430 5426 5425 5423 5421 5418 5416 5414 5411 5409 5405 5401 5398 5395 5392
5533 5526 5519 5512 5506 5500 5494 5489 5484 5481 5477 5472 5468 5463 5458 5453 5448 5443 5440 5436 5433 5429 5426 5423 5422 5420 5418 5413 5410 5407 5406 5404 5404 5400 5396 5395 5391 5388 5385 5381 5377 5373 5369
5514 5506 5499 5493 5487 5481 5475 5470 5465 5461 5458 5454 5449 5444 5439 5434 5428 5425 5420 5416 5413 5410 5408 5405 5403 5402 5398 5394 5391 5389 5387 5385 5384 5380 5377 5376 5372 5369 5366 5362 5357 5352 5348
5494 5487 5481 5474 5469 5463 5457 5452 5447 5443 5439 5434 5429 5424 5420 5415 5410 5405 5402 5398 5395 5391 5388 5385 5385 5382 5379 5375 5372 5370 5368 5366 5365 5362 5357 5357 5354 5351 5348 5343 5337 5332 5327
5476 5469 5463 5456 5451 5446 5439 5434 5429 5425 5421 5416 5411 5406 5401 5396 5391 5385 5383 5380 5377 5373 5369 5366 5364 5362 5360 5357 5354 5352 5350 5348 5347 5345 5339 5337 5335 5332 5330 5325 5319 5312 5307
5458 5452 5446 5439 5434 5428 5423 5417 5412 5408 5404 5399 5393 5387 5382 5377 5372 5367 5363 5361 5359 5355 5351 5348 5346 5344 5341 5339 5336 5334 5332 5330 5329 5328 5323 5319 5317 5312 5311 5309 5301 5294 5288